Location: Johnson City
(36.3130°N, 82.3540°W)
Time: 22:40:57
(UTC-05:00)

OTV 5 (USA 277) - Pass Details

Date: 22 January 2018
Orbit: 404 x 417 km, 43.0° (Epoch: 07 September)

Event Time Altitude Azimuth Distance (km) Brightness Sun altitude
Rises 18:37:51 0° 222° (SW) 2,340 ? -10.8°
Reaches altitude 10° 18:40:04 10° 213° (SSW) 1,480 ? -11.2°
Maximum altitude 18:43:09 34° 146° (SE) 695 ? -11.8°
Enters shadow 18:44:58 19° 92° (E) 1,042 ? -12.1°
